FDB1026 VRMM-OMDB

Flight info

Callsign FDB1026
Flight time 3h 44m
Altitude 34000
Route ELBET1A ELBET L894 KITAL P570 ITURA DCT VAXAS DCT MIVEK P574 IMPED
Aircraft B738/M-SDGIJ1LRWY/SB1

Departure

Time 2026-05-06 16:59
Airport Velana International Airport (VRMM)

Arrival

Time 2026-05-06 20:43
Airport Dubai International Airport (OMDB)
Time Latitude Longitude Altitude Speed Heading
2026-05-06 16:34 4.18206 73.52760 11 ft 0 kts 269°
2026-05-06 16:50 4.18206 73.52769 10 ft 2 kts 269°
2026-05-06 16:50 4.18206 73.52785 11 ft 2 kts 269°
2026-05-06 16:50 4.18206 73.52800 10 ft 2 kts 269°
2026-05-06 16:51 4.18206 73.52814 10 ft 0 kts 269°
2026-05-06 16:51 4.18207 73.52824 10 ft 2 kts 257°
2026-05-06 16:51 4.18212 73.52838 10 ft 2 kts 239°
2026-05-06 16:51 4.18221 73.52850 10 ft 2 kts 220°
2026-05-06 16:52 4.18234 73.52858 11 ft 2 kts 202°
2026-05-06 16:52 4.18249 73.52862 11 ft 1 kts 184°
2026-05-06 16:52 4.18256 73.52862 11 ft 1 kts 176°
2026-05-06 16:52 4.18258 73.52862 11 ft 0 kts 178°
2026-05-06 16:54 4.18257 73.52862 10 ft 1 kts 178°
2026-05-06 16:55 4.18225 73.52863 10 ft 5 kts 178°
2026-05-06 16:55 4.18192 73.52863 10 ft 4 kts 179°
2026-05-06 16:55 4.18158 73.52863 11 ft 5 kts 179°
2026-05-06 16:55 4.18125 73.52867 10 ft 4 kts 159°
2026-05-06 16:56 4.18108 73.52885 10 ft 3 kts 103°
2026-05-06 16:56 4.18113 73.52907 11 ft 3 kts 58°
2026-05-06 16:56 4.18136 73.52923 10 ft 5 kts 19°
2026-05-06 16:56 4.18172 73.52941 10 ft 5 kts 41°
2026-05-06 16:57 4.18189 73.52984 11 ft 8 kts 89°
2026-05-06 16:57 4.18189 73.53055 10 ft 10 kts 89°
2026-05-06 16:57 4.18197 73.53095 10 ft 3 kts 36°
2026-05-06 16:57 4.18218 73.53101 10 ft 3 kts 12°
2026-05-06 16:58 4.18314 73.53102 10 ft 38 kts
2026-05-06 16:58 4.18832 73.53104 11 ft 107 kts 359°
2026-05-06 16:58 4.19790 73.53101 11 ft 164 kts 360°
2026-05-06 16:58 4.21023 73.53104 435 ft 178 kts 359°
2026-05-06 16:59 4.22218 73.53120 1208 ft 176 kts 358°
2026-05-06 16:59 4.23487 73.53110 1749 ft 186 kts 357°
2026-05-06 16:59 4.24823 73.53101 2176 ft 198 kts 358°
2026-05-06 16:59 4.26259 73.53102 2544 ft 215 kts 358°
2026-05-06 17:00 4.27801 73.53105 2984 ft 229 kts 358°
2026-05-06 17:00 4.29450 73.53106 3478 ft 241 kts 358°
2026-05-06 17:00 4.31176 73.53104 3946 ft 256 kts 359°
2026-05-06 17:00 4.32988 73.53103 4473 ft 266 kts 359°
2026-05-06 17:01 4.34852 73.53103 5235 ft 267 kts 359°
2026-05-06 17:01 4.36715 73.53069 5965 ft 268 kts 352°
2026-05-06 17:01 4.38443 73.52416 6624 ft 271 kts 322°
2026-05-06 17:01 4.39695 73.51015 7245 ft 276 kts 309°
2026-05-06 17:02 4.41011 73.49605 7894 ft 279 kts 319°
2026-05-06 17:02 4.42491 73.48375 8582 ft 279 kts 322°
2026-05-06 17:02 4.44045 73.47160 9195 ft 284 kts 322°
2026-05-06 17:02 4.45596 73.45918 9857 ft 286 kts 321°
2026-05-06 17:03 4.47137 73.44646 10355 ft 295 kts 320°
2026-05-06 17:03 4.48748 73.43293 10675 ft 310 kts 320°
2026-05-06 17:03 4.50443 73.41858 10991 ft 324 kts 320°
2026-05-06 17:03 4.52215 73.40356 11267 ft 339 kts 320°
2026-05-06 17:04 4.54037 73.38814 11521 ft 354 kts 320°
2026-05-06 17:04 4.55976 73.37173 11918 ft 363 kts 320°
2026-05-06 17:04 4.57917 73.35531 12534 ft 365 kts 320°
2026-05-06 17:04 4.59839 73.33905 13086 ft 369 kts 319°
2026-05-06 17:05 4.61813 73.32234 13696 ft 372 kts 319°
2026-05-06 17:05 4.63803 73.30550 14268 ft 375 kts 319°
2026-05-06 17:05 4.65789 73.28862 14883 ft 377 kts 318°
2026-05-06 17:05 4.67784 73.27129 15484 ft 378 kts 318°
2026-05-06 17:06 4.69773 73.25436 16121 ft 379 kts 319°
2026-05-06 17:06 4.71807 73.23727 16669 ft 381 kts 319°
2026-05-06 17:06 4.73845 73.22019 17213 ft 384 kts 319°
2026-05-06 17:06 4.75915 73.20280 17725 ft 387 kts 319°
2026-05-06 17:07 4.77973 73.18547 18209 ft 390 kts 319°
2026-05-06 17:07 4.80048 73.16794 18669 ft 393 kts 319°
2026-05-06 17:07 4.82158 73.15010 19151 ft 396 kts 319°
2026-05-06 17:07 4.84262 73.13231 19593 ft 400 kts 319°
2026-05-06 17:08 4.86393 73.11428 20043 ft 403 kts 319°
2026-05-06 17:08 4.88537 73.09614 20461 ft 406 kts 319°
2026-05-06 17:08 4.90732 73.07756 20930 ft 408 kts 319°
2026-05-06 17:08 4.92913 73.05910 21293 ft 413 kts 320°
2026-05-06 17:09 4.95100 73.04057 21712 ft 415 kts 320°
2026-05-06 17:09 4.97323 73.02174 22082 ft 419 kts 320°
2026-05-06 17:09 4.99550 73.00288 22432 ft 423 kts 320°
2026-05-06 17:09 5.01790 72.98390 22785 ft 427 kts 320°
2026-05-06 17:10 5.04074 72.96455 23157 ft 430 kts 320°
2026-05-06 17:10 5.06387 72.94495 23501 ft 434 kts 320°
2026-05-06 17:10 5.08708 72.92528 23824 ft 438 kts 320°
2026-05-06 17:10 5.11011 72.90576 24187 ft 441 kts 320°
2026-05-06 17:11 5.13369 72.88577 24502 ft 445 kts 320°
2026-05-06 17:11 5.15760 72.86551 24885 ft 447 kts 320°
2026-05-06 17:11 5.18152 72.84522 25194 ft 451 kts 321°
2026-05-06 17:11 5.20530 72.82507 25497 ft 455 kts 320°
2026-05-06 17:12 5.22975 72.80433 25831 ft 457 kts 321°
2026-05-06 17:12 5.25388 72.78386 26104 ft 461 kts 321°
2026-05-06 17:12 5.27869 72.76281 26409 ft 465 kts 321°
2026-05-06 17:12 5.30328 72.74195 26740 ft 467 kts 321°
2026-05-06 17:13 5.32825 72.72076 27036 ft 470 kts 321°
2026-05-06 17:13 5.35341 72.69941 27338 ft 473 kts 321°
2026-05-06 17:13 5.37840 72.67820 27626 ft 476 kts 321°
2026-05-06 17:13 5.40407 72.65640 27931 ft 478 kts 321°
2026-05-06 17:14 5.42921 72.63506 28209 ft 481 kts 321°
2026-05-06 17:14 5.45492 72.61322 28526 ft 483 kts 321°
2026-05-06 17:14 5.48066 72.59135 29008 ft 481 kts 321°
2026-05-06 17:14 5.50610 72.56973 29371 ft 482 kts 321°
2026-05-06 17:15 5.53180 72.54789 29733 ft 482 kts 321°
2026-05-06 17:15 5.55724 72.52627 30086 ft 483 kts 321°
2026-05-06 17:15 5.58296 72.50441 30463 ft 483 kts 321°
2026-05-06 17:15 5.60860 72.48262 30816 ft 483 kts 321°
2026-05-06 17:16 5.63410 72.46095 31156 ft 483 kts 321°
2026-05-06 17:16 5.65967 72.43921 31539 ft 483 kts 321°
2026-05-06 17:16 5.68536 72.41737 31881 ft 483 kts 321°
2026-05-06 17:16 5.71127 72.39534 32164 ft 485 kts 321°
2026-05-06 17:17 5.73672 72.37370 32492 ft 485 kts 321°
2026-05-06 17:17 5.76245 72.35182 32847 ft 485 kts 321°
2026-05-06 17:17 5.78811 72.33001 33254 ft 484 kts 321°
2026-05-06 17:17 5.81405 72.30794 33617 ft 483 kts 321°
2026-05-06 17:18 5.83979 72.28604 33824 ft 485 kts 321°
2026-05-06 17:18 5.89121 72.24229 33846 ft 480 kts 321°
2026-05-06 17:19 5.94230 72.19879 33846 ft 482 kts 321°
2026-05-06 17:19 5.99346 72.15523 33843 ft 481 kts 321°
2026-05-06 17:20 6.04443 72.11183 33843 ft 479 kts 321°
2026-05-06 17:20 6.09530 72.06850 33843 ft 479 kts 321°
2026-05-06 17:21 6.14613 72.02521 33843 ft 479 kts 321°
2026-05-06 17:21 6.19740 71.98152 33842 ft 480 kts 321°
2026-05-06 17:22 6.24817 71.93824 33843 ft 479 kts 321°
2026-05-06 17:22 6.29903 71.89487 33843 ft 480 kts 321°
2026-05-06 17:23 6.35019 71.85123 33843 ft 480 kts 321°
2026-05-06 17:23 6.40114 71.80851 33843 ft 479 kts 322°
2026-05-06 17:24 6.45404 71.76700 33843 ft 479 kts 324°
2026-05-06 17:24 6.50674 71.72634 33843 ft 478 kts 324°
2026-05-06 17:25 6.55969 71.68535 33844 ft 479 kts 323°
2026-05-06 17:25 6.61207 71.64456 33848 ft 478 kts 323°
2026-05-06 17:26 6.66496 71.60323 33847 ft 479 kts 323°
2026-05-06 17:26 6.71752 71.56206 33846 ft 479 kts 323°
2026-05-06 17:27 6.76993 71.52096 33852 ft 478 kts 323°
2026-05-06 17:27 6.82231 71.47987 33856 ft 479 kts 323°
2026-05-06 17:28 6.87473 71.43874 33855 ft 478 kts 323°
2026-05-06 17:28 6.92741 71.39741 33857 ft 477 kts 323°
2026-05-06 17:29 6.97993 71.35619 33855 ft 479 kts 323°
2026-05-06 17:29 7.03226 71.31506 33854 ft 476 kts 323°
2026-05-06 17:30 7.08471 71.27387 33859 ft 479 kts 323°
2026-05-06 17:30 7.13707 71.23273 33855 ft 478 kts 323°
2026-05-06 17:31 7.18950 71.19153 33860 ft 477 kts 323°
2026-05-06 17:31 7.24201 71.15024 33853 ft 478 kts 323°
2026-05-06 17:32 7.29430 71.10911 33849 ft 477 kts 323°
2026-05-06 17:32 7.34667 71.06789 33844 ft 477 kts 323°
2026-05-06 17:33 7.39898 71.02673 33843 ft 477 kts 323°
2026-05-06 17:33 7.45132 70.98551 33840 ft 477 kts 323°
2026-05-06 17:34 7.50367 70.94430 33844 ft 477 kts 323°
2026-05-06 17:34 7.55603 70.90303 33843 ft 477 kts 323°
2026-05-06 17:35 7.60832 70.86179 33842 ft 478 kts 322°
2026-05-06 17:35 7.66069 70.82046 33844 ft 478 kts 323°
2026-05-06 17:36 7.73907 70.75859 33844 ft 478 kts 323°
2026-05-06 17:36 7.79160 70.71710 33843 ft 476 kts 323°
2026-05-06 17:37 7.84363 70.67600 33844 ft 478 kts 323°
2026-05-06 17:37 7.89601 70.63460 33842 ft 476 kts 322°
2026-05-06 17:38 7.94800 70.59348 33842 ft 476 kts 322°
2026-05-06 17:38 8.00024 70.55218 33843 ft 477 kts 322°
2026-05-06 17:39 8.05240 70.51093 33842 ft 477 kts 322°
2026-05-06 17:39 8.10503 70.46928 33846 ft 477 kts 322°
2026-05-06 17:40 8.15687 70.42824 33854 ft 476 kts 322°
2026-05-06 17:40 8.20895 70.38699 33859 ft 475 kts 322°
2026-05-06 17:41 8.26119 70.34561 33860 ft 476 kts 322°
2026-05-06 17:41 8.31347 70.30418 33861 ft 476 kts 322°
2026-05-06 17:42 8.36576 70.26273 33862 ft 475 kts 322°
2026-05-06 17:42 8.41771 70.22154 33862 ft 475 kts 322°
2026-05-06 17:43 8.46966 70.18033 33862 ft 476 kts 322°
2026-05-06 17:43 8.52159 70.13911 33862 ft 475 kts 322°
2026-05-06 17:44 8.57364 70.09781 33861 ft 475 kts 322°
2026-05-06 17:44 8.62583 70.05637 33863 ft 475 kts 322°
2026-05-06 17:45 8.67746 70.01534 33863 ft 473 kts 322°
2026-05-06 17:45 8.72922 69.97421 33863 ft 474 kts 322°
2026-05-06 17:46 8.78120 69.93290 33864 ft 473 kts 322°
2026-05-06 17:46 8.83284 69.89182 33863 ft 473 kts 322°
2026-05-06 17:47 8.88457 69.85068 33863 ft 473 kts 322°
2026-05-06 17:47 8.93662 69.80924 33860 ft 473 kts 322°
2026-05-06 17:48 8.98844 69.76800 33853 ft 473 kts 322°
2026-05-06 17:48 9.03996 69.72697 33850 ft 473 kts 322°
2026-05-06 17:49 9.09176 69.68570 33848 ft 472 kts 322°
2026-05-06 17:49 9.14321 69.64469 33850 ft 472 kts 322°
2026-05-06 17:50 9.19501 69.60339 33853 ft 472 kts 322°
2026-05-06 17:50 9.24645 69.56236 33852 ft 472 kts 322°
2026-05-06 17:51 9.29826 69.52102 33851 ft 472 kts 322°
2026-05-06 17:51 9.34993 69.47977 33854 ft 473 kts 322°
2026-05-06 17:52 9.40134 69.43873 33854 ft 472 kts 322°
2026-05-06 17:52 9.45324 69.39727 33855 ft 472 kts 322°
2026-05-06 17:53 9.50469 69.35615 33855 ft 472 kts 322°
2026-05-06 17:53 9.55624 69.31494 33856 ft 471 kts 322°
2026-05-06 17:54 9.60791 69.27362 33857 ft 473 kts 322°
2026-05-06 17:54 9.65964 69.23223 33860 ft 474 kts 322°
2026-05-06 17:55 9.71123 69.19095 33865 ft 472 kts 322°
2026-05-06 17:55 9.76293 69.14953 33866 ft 472 kts 322°
2026-05-06 17:56 9.81445 69.10818 33865 ft 472 kts 322°
2026-05-06 17:56 9.86611 69.06668 33867 ft 471 kts 322°
2026-05-06 17:57 9.91738 69.02549 33867 ft 473 kts 322°
2026-05-06 17:57 9.96913 68.98391 33866 ft 472 kts 322°
2026-05-06 17:58 10.02052 68.94259 33867 ft 472 kts 322°
2026-05-06 17:58 10.07224 68.90100 33867 ft 473 kts 322°
2026-05-06 17:59 10.12403 68.85933 33866 ft 471 kts 322°
2026-05-06 17:59 10.17534 68.81802 33867 ft 471 kts 322°
2026-05-06 18:00 10.22687 68.77652 33865 ft 472 kts 322°
2026-05-06 18:00 10.27834 68.73505 33862 ft 471 kts 322°
2026-05-06 18:01 10.32968 68.69367 33862 ft 470 kts 322°
2026-05-06 18:01 10.38085 68.65243 33864 ft 471 kts 322°
2026-05-06 18:02 10.43236 68.61089 33862 ft 470 kts 322°
2026-05-06 18:02 10.48355 68.56957 33865 ft 470 kts 322°
2026-05-06 18:03 10.53470 68.52827 33874 ft 471 kts 322°
2026-05-06 18:03 10.58629 68.48660 33878 ft 471 kts 322°
2026-05-06 18:04 10.63769 68.44508 33879 ft 470 kts 322°
2026-05-06 18:04 10.68872 68.40382 33878 ft 470 kts 322°
2026-05-06 18:05 10.74008 68.36228 33878 ft 469 kts 322°
2026-05-06 18:05 10.79101 68.32108 33878 ft 469 kts 322°
2026-05-06 18:06 10.84236 68.27952 33880 ft 469 kts 322°
2026-05-06 18:06 10.89343 68.23816 33880 ft 470 kts 322°
2026-05-06 18:07 10.94467 68.19665 33882 ft 469 kts 322°
2026-05-06 18:07 10.99559 68.15537 33879 ft 470 kts 322°
2026-05-06 18:08 11.04686 68.11379 33881 ft 469 kts 322°
2026-05-06 18:08 11.09779 68.07255 33875 ft 469 kts 322°
2026-05-06 18:09 11.14898 68.03110 33869 ft 468 kts 322°
2026-05-06 18:09 11.19999 67.98978 33863 ft 468 kts 322°
2026-05-06 18:10 11.25085 67.94854 33862 ft 467 kts 322°
2026-05-06 18:10 11.30151 67.90745 33863 ft 468 kts 322°
2026-05-06 18:11 11.35251 67.86606 33863 ft 468 kts 322°
2026-05-06 18:11 11.40384 67.82439 33863 ft 470 kts 322°
2026-05-06 18:12 11.45480 67.78297 33863 ft 468 kts 322°
2026-05-06 18:12 11.50582 67.74152 33863 ft 467 kts 322°
2026-05-06 18:13 11.55649 67.70031 33863 ft 468 kts 322°
2026-05-06 18:13 11.60766 67.65865 33863 ft 467 kts 322°
2026-05-06 18:14 11.65859 67.61720 33863 ft 468 kts 322°
2026-05-06 18:14 11.70948 67.57579 33863 ft 468 kts 322°
2026-05-06 18:15 11.76033 67.53437 33863 ft 469 kts 322°
2026-05-06 18:15 11.81124 67.49288 33863 ft 467 kts 322°
2026-05-06 18:16 11.86215 67.45137 33863 ft 467 kts 322°
2026-05-06 18:16 11.91277 67.41007 33863 ft 467 kts 322°
2026-05-06 18:17 11.96363 67.36856 33863 ft 468 kts 322°
2026-05-06 18:17 12.01428 67.32719 33863 ft 467 kts 322°
2026-05-06 18:18 12.06527 67.28550 33863 ft 468 kts 322°
2026-05-06 18:18 12.11577 67.24418 33863 ft 468 kts 322°
2026-05-06 18:19 12.16659 67.20258 33863 ft 468 kts 322°
2026-05-06 18:19 12.21731 67.16106 33863 ft 467 kts 322°
2026-05-06 18:20 12.26835 67.11925 33863 ft 467 kts 322°
2026-05-06 18:20 12.31895 67.07777 33863 ft 468 kts 322°
2026-05-06 18:21 12.36963 67.03621 33863 ft 468 kts 322°
2026-05-06 18:21 12.42077 66.99425 33866 ft 468 kts 322°
2026-05-06 18:22 12.47110 66.95295 33871 ft 467 kts 322°
2026-05-06 18:22 12.52203 66.91112 33873 ft 466 kts 322°
2026-05-06 18:23 12.57243 66.86970 33868 ft 466 kts 322°
2026-05-06 18:23 12.62297 66.82814 33864 ft 466 kts 322°
2026-05-06 18:24 12.67366 66.78645 33864 ft 468 kts 322°
2026-05-06 18:24 12.72435 66.74474 33863 ft 468 kts 322°
2026-05-06 18:25 12.77532 66.70277 33863 ft 467 kts 322°
2026-05-06 18:25 12.82590 66.66111 33863 ft 466 kts 322°
2026-05-06 18:26 12.87648 66.61941 33863 ft 466 kts 322°
2026-05-06 18:26 12.92719 66.57759 33864 ft 466 kts 322°
2026-05-06 18:27 12.97751 66.53606 33863 ft 467 kts 322°
2026-05-06 18:27 13.02826 66.49417 33863 ft 467 kts 322°
2026-05-06 18:28 13.07896 66.45229 33864 ft 466 kts 322°
2026-05-06 18:28 13.12916 66.41080 33863 ft 466 kts 322°
2026-05-06 18:29 13.17977 66.36894 33864 ft 465 kts 322°
2026-05-06 18:29 13.23001 66.32736 33865 ft 465 kts 322°
2026-05-06 18:30 13.28050 66.28557 33863 ft 465 kts 322°
2026-05-06 18:30 13.33102 66.24371 33865 ft 465 kts 322°
2026-05-06 18:31 13.38123 66.20209 33863 ft 466 kts 321°
2026-05-06 18:31 13.43150 66.16038 33865 ft 466 kts 321°
2026-05-06 18:32 13.48192 66.11852 33865 ft 466 kts 321°
2026-05-06 18:32 13.53251 66.07649 33864 ft 465 kts 321°
2026-05-06 18:33 13.58258 66.03487 33864 ft 464 kts 321°
2026-05-06 18:33 13.63289 65.99303 33867 ft 464 kts 321°
2026-05-06 18:34 13.68323 65.95115 33870 ft 464 kts 321°
2026-05-06 18:34 13.73316 65.90958 33871 ft 464 kts 321°
2026-05-06 18:35 13.78359 65.86759 33872 ft 466 kts 321°
2026-05-06 18:35 13.83373 65.82579 33872 ft 465 kts 321°
2026-05-06 18:36 13.88388 65.78397 33870 ft 465 kts 321°
2026-05-06 18:36 13.93430 65.74189 33870 ft 464 kts 321°
2026-05-06 18:37 13.98454 65.69995 33872 ft 464 kts 321°
2026-05-06 18:37 14.03441 65.65829 33870 ft 464 kts 321°
2026-05-06 18:38 14.08472 65.61623 33870 ft 465 kts 321°
2026-05-06 18:38 14.13476 65.57439 33868 ft 465 kts 321°
2026-05-06 18:39 14.18504 65.53231 33865 ft 464 kts 321°
2026-05-06 18:40 14.26034 65.46925 33862 ft 464 kts 321°
2026-05-06 18:40 14.31032 65.42735 33864 ft 463 kts 321°
2026-05-06 18:41 14.36041 65.38535 33860 ft 463 kts 321°
2026-05-06 18:41 14.41042 65.34340 33862 ft 463 kts 321°
2026-05-06 18:42 14.46055 65.30130 33864 ft 464 kts 321°
2026-05-06 18:42 14.51037 65.25945 33862 ft 464 kts 321°
2026-05-06 18:43 14.56050 65.21731 33862 ft 463 kts 320°
2026-05-06 18:43 14.61056 65.17514 33861 ft 464 kts 320°
2026-05-06 18:44 14.66028 65.13288 33863 ft 464 kts 320°
2026-05-06 18:44 14.71011 65.09036 33864 ft 463 kts 320°
2026-05-06 18:45 14.75966 65.04808 33861 ft 464 kts 320°
2026-05-06 18:45 14.80945 65.00558 33862 ft 463 kts 320°
2026-05-06 18:46 14.85947 64.96290 33863 ft 462 kts 320°
2026-05-06 18:46 14.90880 64.92077 33861 ft 462 kts 320°
2026-05-06 18:47 14.95837 64.87842 33863 ft 462 kts 320°
2026-05-06 18:47 15.00801 64.83599 33861 ft 462 kts 320°
2026-05-06 18:48 15.05760 64.79357 33863 ft 462 kts 320°
2026-05-06 18:48 15.10744 64.75092 33863 ft 462 kts 320°
2026-05-06 18:49 15.15673 64.70871 33863 ft 462 kts 320°
2026-05-06 18:49 15.20633 64.66621 33864 ft 460 kts 320°
2026-05-06 18:50 15.25577 64.62380 33868 ft 461 kts 320°
2026-05-06 18:50 15.30537 64.58124 33875 ft 460 kts 320°
2026-05-06 18:51 15.35456 64.53902 33876 ft 459 kts 320°
2026-05-06 18:51 15.40372 64.49680 33877 ft 459 kts 320°
2026-05-06 18:52 15.45288 64.45454 33878 ft 459 kts 320°
2026-05-06 18:52 15.50223 64.41208 33876 ft 460 kts 320°
2026-05-06 18:53 15.55157 64.36960 33870 ft 459 kts 320°
2026-05-06 18:53 15.60057 64.32739 33864 ft 459 kts 320°
2026-05-06 18:54 15.64962 64.28513 33863 ft 458 kts 320°
2026-05-06 18:54 15.69877 64.24274 33863 ft 457 kts 320°
2026-05-06 18:55 15.74766 64.20056 33863 ft 459 kts 320°
2026-05-06 18:55 15.79682 64.15811 33863 ft 460 kts 320°
2026-05-06 18:56 15.84610 64.11552 33863 ft 459 kts 320°
2026-05-06 18:56 15.89533 64.07297 33863 ft 458 kts 320°
2026-05-06 18:57 15.94414 64.03074 33863 ft 457 kts 320°
2026-05-06 18:57 15.99291 63.98851 33863 ft 457 kts 320°
2026-05-06 18:58 16.04172 63.94623 33863 ft 457 kts 320°
2026-05-06 18:58 16.09081 63.90367 33863 ft 458 kts 320°
2026-05-06 18:59 16.13978 63.86118 33863 ft 458 kts 320°
2026-05-06 18:59 16.18870 63.81871 33863 ft 459 kts 320°
2026-05-06 19:00 16.23777 63.77609 33862 ft 458 kts 320°
2026-05-06 19:00 16.28654 63.73371 33863 ft 457 kts 320°
2026-05-06 19:01 16.33531 63.69129 33863 ft 456 kts 320°
2026-05-06 19:01 16.38399 63.64891 33863 ft 456 kts 320°
2026-05-06 19:02 16.43269 63.60650 33862 ft 457 kts 320°
2026-05-06 19:02 16.48163 63.56383 33863 ft 458 kts 320°
2026-05-06 19:03 16.53042 63.52128 33863 ft 457 kts 320°
2026-05-06 19:03 16.57897 63.47891 33863 ft 457 kts 320°
2026-05-06 19:04 16.62806 63.43605 33866 ft 456 kts 320°
2026-05-06 19:04 16.67669 63.39355 33872 ft 457 kts 320°
2026-05-06 19:05 16.72524 63.35109 33874 ft 457 kts 320°
2026-05-06 19:05 16.77391 63.30849 33876 ft 457 kts 320°
2026-05-06 19:06 16.82264 63.26582 33879 ft 457 kts 320°
2026-05-06 19:06 16.87160 63.22292 33883 ft 458 kts 320°
2026-05-06 19:07 16.92039 63.18012 33883 ft 457 kts 320°
2026-05-06 19:07 16.96905 63.13742 33878 ft 457 kts 320°
2026-05-06 19:08 17.01784 63.09457 33873 ft 458 kts 320°
2026-05-06 19:08 17.06623 63.05204 33865 ft 457 kts 320°
2026-05-06 19:09 17.11492 63.00922 33864 ft 458 kts 320°
2026-05-06 19:09 17.16371 62.96629 33863 ft 457 kts 320°
2026-05-06 19:10 17.21217 62.92362 33864 ft 457 kts 320°
2026-05-06 19:10 17.26055 62.88099 33864 ft 456 kts 320°
2026-05-06 19:11 17.30915 62.83813 33863 ft 457 kts 320°
2026-05-06 19:11 17.35783 62.79517 33863 ft 457 kts 320°
2026-05-06 19:12 17.40675 62.75196 33864 ft 456 kts 320°
2026-05-06 19:12 17.45501 62.70931 33864 ft 456 kts 320°
2026-05-06 19:13 17.50372 62.66624 33864 ft 456 kts 320°
2026-05-06 19:13 17.55215 62.62338 33864 ft 455 kts 320°
2026-05-06 19:14 17.60032 62.58071 33863 ft 456 kts 320°
2026-05-06 19:14 17.64896 62.53760 33866 ft 456 kts 320°
2026-05-06 19:15 17.69754 62.49450 33865 ft 456 kts 320°
2026-05-06 19:15 17.74570 62.45176 33865 ft 456 kts 320°
2026-05-06 19:16 17.79424 62.40864 33863 ft 455 kts 320°
2026-05-06 19:16 17.84275 62.36552 33864 ft 455 kts 320°
2026-05-06 19:17 17.89054 62.32237 33866 ft 455 kts 319°
2026-05-06 19:17 17.93821 62.27840 33864 ft 455 kts 319°
2026-05-06 19:18 17.98588 62.23428 33863 ft 455 kts 319°
2026-05-06 19:18 18.03319 62.19056 33865 ft 455 kts 319°
2026-05-06 19:19 18.08066 62.14673 33862 ft 455 kts 319°
2026-05-06 19:19 18.12836 62.10268 33864 ft 456 kts 319°
2026-05-06 19:20 18.17595 62.05872 33861 ft 456 kts 319°
2026-05-06 19:20 18.22357 62.01472 33860 ft 455 kts 319°
2026-05-06 19:21 18.27090 61.97094 33860 ft 455 kts 319°
2026-05-06 19:21 18.31844 61.92695 33860 ft 455 kts 319°
2026-05-06 19:22 18.36611 61.88279 33863 ft 456 kts 319°
2026-05-06 19:22 18.41384 61.83855 33864 ft 457 kts 319°
2026-05-06 19:23 18.46171 61.79415 33860 ft 457 kts 319°
2026-05-06 19:23 18.50929 61.74997 33859 ft 456 kts 319°
2026-05-06 19:24 18.55674 61.70589 33853 ft 456 kts 319°
2026-05-06 19:24 18.60449 61.66149 33853 ft 456 kts 319°
2026-05-06 19:25 18.65180 61.61747 33858 ft 457 kts 319°
2026-05-06 19:25 18.69974 61.57283 33863 ft 458 kts 319°
2026-05-06 19:26 18.74744 61.52838 33863 ft 457 kts 319°
2026-05-06 19:26 18.79487 61.48415 33863 ft 457 kts 319°
2026-05-06 19:27 18.84273 61.43948 33863 ft 457 kts 319°
2026-05-06 19:27 18.89008 61.39524 33863 ft 457 kts 319°
2026-05-06 19:28 18.93776 61.35067 33863 ft 457 kts 319°
2026-05-06 19:28 18.98523 61.30626 33863 ft 457 kts 319°
2026-05-06 19:29 19.03302 61.26150 33863 ft 457 kts 319°
2026-05-06 19:29 19.08047 61.21704 33863 ft 457 kts 319°
2026-05-06 19:30 19.12808 61.17238 33863 ft 457 kts 319°
2026-05-06 19:30 19.17546 61.12791 33863 ft 455 kts 319°
2026-05-06 19:31 19.22287 61.08338 33860 ft 455 kts 318°
2026-05-06 19:31 19.29359 61.01689 33857 ft 454 kts 318°
2026-05-06 19:32 19.34086 60.97238 33855 ft 454 kts 318°
2026-05-06 19:32 19.38810 60.92789 33856 ft 455 kts 318°
2026-05-06 19:33 19.43518 60.88351 33855 ft 454 kts 318°
2026-05-06 19:33 19.48246 60.83889 33855 ft 454 kts 318°
2026-05-06 19:34 19.52951 60.79447 33853 ft 454 kts 318°
2026-05-06 19:34 19.57663 60.74994 33851 ft 454 kts 318°
2026-05-06 19:35 19.62368 60.70543 33849 ft 454 kts 318°
2026-05-06 19:35 19.67078 60.66086 33849 ft 454 kts 318°
2026-05-06 19:36 19.71770 60.61641 33846 ft 453 kts 318°
2026-05-06 19:36 19.76471 60.57183 33844 ft 453 kts 317°
2026-05-06 19:37 19.81187 60.52709 33844 ft 453 kts 317°
2026-05-06 19:37 19.85864 60.48267 33844 ft 453 kts 317°
2026-05-06 19:38 19.90578 60.43787 33843 ft 453 kts 318°
2026-05-06 19:38 19.95267 60.39326 33844 ft 453 kts 317°
2026-05-06 19:39 19.99966 60.34852 33843 ft 453 kts 317°
2026-05-06 19:39 20.04714 60.30464 33842 ft 453 kts 321°
2026-05-06 19:40 20.09929 60.26689 33842 ft 453 kts 327°
2026-05-06 19:40 20.15334 60.23282 33842 ft 453 kts 329°
2026-05-06 19:41 20.20807 60.19904 33838 ft 453 kts 329°
2026-05-06 19:41 20.26261 60.16508 33836 ft 452 kts 328°
2026-05-06 19:42 20.31648 60.13118 33835 ft 453 kts 328°
2026-05-06 19:42 20.37054 60.09694 33835 ft 453 kts 328°
2026-05-06 19:43 20.42470 60.06253 33834 ft 453 kts 328°
2026-05-06 19:43 20.47906 60.02792 33834 ft 453 kts 328°
2026-05-06 19:44 20.53306 59.99349 33833 ft 452 kts 328°
2026-05-06 19:44 20.58696 59.95910 33830 ft 451 kts 328°
2026-05-06 19:45 20.64047 59.92492 33837 ft 451 kts 328°
2026-05-06 19:45 20.69455 59.89037 33836 ft 450 kts 328°
2026-05-06 19:46 20.74808 59.85613 33835 ft 450 kts 328°
2026-05-06 19:46 20.80204 59.82158 33832 ft 450 kts 328°
2026-05-06 19:47 20.85576 59.78716 33831 ft 450 kts 328°
2026-05-06 19:47 20.90924 59.75286 33829 ft 449 kts 328°
2026-05-06 19:48 20.96296 59.71838 33826 ft 449 kts 328°
2026-05-06 19:48 21.01657 59.68396 33827 ft 450 kts 328°
2026-05-06 19:49 21.07009 59.64954 33837 ft 449 kts 328°
2026-05-06 19:49 21.12347 59.61517 33839 ft 449 kts 328°
2026-05-06 19:50 21.17679 59.58080 33839 ft 448 kts 328°
2026-05-06 19:50 21.23045 59.54619 33840 ft 447 kts 328°
2026-05-06 19:51 21.28359 59.51188 33836 ft 448 kts 328°
2026-05-06 19:51 21.33692 59.47741 33834 ft 447 kts 328°
2026-05-06 19:52 21.39019 59.44294 33836 ft 447 kts 328°
2026-05-06 19:52 21.44341 59.40848 33837 ft 447 kts 328°
2026-05-06 19:53 21.49677 59.37390 33835 ft 447 kts 328°
2026-05-06 19:53 21.54972 59.33956 33836 ft 446 kts 327°
2026-05-06 19:54 21.60313 59.30489 33839 ft 446 kts 327°
2026-05-06 19:54 21.65596 59.27058 33842 ft 446 kts 327°
2026-05-06 19:55 21.70922 59.23598 33851 ft 446 kts 327°
2026-05-06 19:55 21.76242 59.20138 33855 ft 446 kts 327°
2026-05-06 19:56 21.81541 59.16689 33857 ft 446 kts 327°
2026-05-06 19:56 21.86839 59.13237 33863 ft 446 kts 327°
2026-05-06 19:57 21.92174 59.09758 33868 ft 447 kts 327°
2026-05-06 19:57 21.97475 59.06299 33875 ft 445 kts 327°
2026-05-06 19:58 22.02774 59.02838 33888 ft 445 kts 327°
2026-05-06 19:58 22.08077 58.99371 33888 ft 444 kts 327°
2026-05-06 19:59 22.13336 58.95929 33892 ft 444 kts 327°
2026-05-06 19:59 22.18614 58.92472 33896 ft 444 kts 327°
2026-05-06 20:00 22.23917 58.88995 33894 ft 445 kts 327°
2026-05-06 20:00 22.29197 58.85531 33903 ft 444 kts 327°
2026-05-06 20:01 22.34486 58.82058 33908 ft 444 kts 327°
2026-05-06 20:01 22.39758 58.78593 33907 ft 444 kts 327°
2026-05-06 20:02 22.45029 58.75126 33915 ft 443 kts 327°
2026-05-06 20:02 22.50276 58.71669 33917 ft 443 kts 327°
2026-05-06 20:03 22.55573 58.68178 33924 ft 443 kts 326°
2026-05-06 20:03 22.60803 58.64728 33934 ft 443 kts 327°
2026-05-06 20:04 22.66097 58.61232 33941 ft 444 kts 327°
2026-05-06 20:04 22.71338 58.57769 33953 ft 443 kts 326°
2026-05-06 20:05 22.76628 58.54273 33956 ft 442 kts 326°
2026-05-06 20:05 22.81890 58.50790 33972 ft 443 kts 326°
2026-05-06 20:06 22.87133 58.47317 33990 ft 443 kts 326°
2026-05-06 20:06 22.92362 58.43850 34006 ft 442 kts 326°
2026-05-06 20:07 22.97616 58.40362 34018 ft 442 kts 326°
2026-05-06 20:07 23.02877 58.36868 34025 ft 442 kts 326°
2026-05-06 20:08 23.08102 58.33392 34023 ft 443 kts 326°
2026-05-06 20:08 23.13349 58.29897 34022 ft 442 kts 326°
2026-05-06 20:09 23.18591 58.26402 34021 ft 442 kts 326°
2026-05-06 20:09 23.23849 58.22894 34014 ft 441 kts 326°
2026-05-06 20:10 23.29082 58.19399 33990 ft 443 kts 325°
2026-05-06 20:10 23.34353 58.15876 33941 ft 441 kts 325°
2026-05-06 20:11 23.39317 58.12044 33920 ft 439 kts 316°
2026-05-06 20:11 23.43564 58.07288 33876 ft 436 kts 308°
2026-05-06 20:12 23.47376 58.02179 33889 ft 435 kts 306°
2026-05-06 20:12 23.51115 57.97005 33859 ft 435 kts 306°
2026-05-06 20:13 23.54861 57.91848 33869 ft 434 kts 306°
2026-05-06 20:13 23.58628 57.86697 33843 ft 435 kts 306°
2026-05-06 20:14 23.62402 57.81553 33827 ft 436 kts 306°
2026-05-06 20:14 23.66171 57.76418 33831 ft 435 kts 306°
2026-05-06 20:15 23.69951 57.71264 33822 ft 436 kts 306°
2026-05-06 20:15 23.73749 57.66082 33804 ft 436 kts 306°
2026-05-06 20:16 23.77516 57.60935 33800 ft 437 kts 306°
2026-05-06 20:16 23.81295 57.55770 33814 ft 436 kts 306°
2026-05-06 20:17 23.85070 57.50603 33802 ft 435 kts 306°
2026-05-06 20:17 23.88847 57.45428 33804 ft 436 kts 306°
2026-05-06 20:18 23.92616 57.40259 33805 ft 435 kts 306°
2026-05-06 20:18 23.96392 57.35074 33788 ft 436 kts 306°
2026-05-06 20:19 24.00175 57.29874 33791 ft 435 kts 306°
2026-05-06 20:19 24.03935 57.24701 33792 ft 436 kts 306°
2026-05-06 20:20 24.07699 57.19517 33781 ft 436 kts 306°
2026-05-06 20:20 24.11465 57.14324 33780 ft 436 kts 306°
2026-05-06 20:21 24.15243 57.09111 33781 ft 435 kts 306°
2026-05-06 20:21 24.18987 57.03938 33725 ft 436 kts 305°
2026-05-06 20:22 24.20867 57.01338 33457 ft 437 kts 305°
2026-05-06 20:22 24.22753 56.98728 33179 ft 435 kts 305°
2026-05-06 20:22 24.24628 56.96133 32902 ft 435 kts 305°
2026-05-06 20:22 24.26496 56.93547 32633 ft 435 kts 305°
2026-05-06 20:23 24.28386 56.90928 32383 ft 436 kts 305°
2026-05-06 20:23 24.30260 56.88330 32134 ft 437 kts 306°
2026-05-06 20:23 24.32142 56.85719 31884 ft 437 kts 306°
2026-05-06 20:23 24.34019 56.83114 31637 ft 437 kts 306°
2026-05-06 20:24 24.35897 56.80506 31326 ft 437 kts 306°
2026-05-06 20:24 24.37783 56.77886 30827 ft 428 kts 306°
2026-05-06 20:24 24.39613 56.75346 30245 ft 423 kts 306°
2026-05-06 20:24 24.41402 56.72860 29580 ft 420 kts 306°
2026-05-06 20:25 24.43201 56.70357 28943 ft 416 kts 306°
2026-05-06 20:25 24.44983 56.67874 28265 ft 413 kts 306°
2026-05-06 20:25 24.46757 56.65402 27579 ft 411 kts 306°
2026-05-06 20:25 24.48514 56.62951 26937 ft 407 kts 306°
2026-05-06 20:26 24.50257 56.60519 26304 ft 404 kts 306°
2026-05-06 20:26 24.52007 56.58075 25642 ft 401 kts 306°
2026-05-06 20:26 24.53704 56.55706 24983 ft 399 kts 307°
2026-05-06 20:26 24.55406 56.53328 24336 ft 396 kts 307°
2026-05-06 20:27 24.57097 56.50965 23709 ft 393 kts 307°
2026-05-06 20:27 24.58776 56.48617 23067 ft 390 kts 307°
2026-05-06 20:27 24.60434 56.46296 22437 ft 387 kts 307°
2026-05-06 20:27 24.62093 56.43974 21794 ft 385 kts 307°
2026-05-06 20:28 24.63747 56.41659 21185 ft 383 kts 307°
2026-05-06 20:28 24.65383 56.39367 20678 ft 380 kts 308°
2026-05-06 20:28 24.67006 56.37093 20180 ft 378 kts 308°
2026-05-06 20:28 24.68606 56.34851 19660 ft 377 kts 308°
2026-05-06 20:29 24.70303 56.32648 19142 ft 375 kts 313°
2026-05-06 20:29 24.72269 56.30766 18641 ft 372 kts 327°
2026-05-06 20:29 24.74560 56.29469 18155 ft 368 kts 340°
2026-05-06 20:29 24.76959 56.28596 17688 ft 365 kts 345°
2026-05-06 20:30 24.79392 56.27852 17217 ft 362 kts 346°
2026-05-06 20:30 24.84234 56.26456 16296 ft 357 kts 346°
2026-05-06 20:30 24.86568 56.25541 15825 ft 357 kts 335°
2026-05-06 20:31 24.88581 56.23901 15347 ft 359 kts 313°
2026-05-06 20:31 24.89981 56.21642 14870 ft 359 kts 301°
2026-05-06 20:31 24.91160 56.19271 14424 ft 357 kts 300°
2026-05-06 20:31 24.92328 56.16852 13948 ft 355 kts 300°
2026-05-06 20:32 24.93482 56.14489 13503 ft 353 kts 300°
2026-05-06 20:32 24.94662 56.12125 13051 ft 351 kts 301°
2026-05-06 20:32 24.95859 56.09765 12624 ft 348 kts 301°
2026-05-06 20:32 24.96968 56.07433 12206 ft 346 kts 295°
2026-05-06 20:33 24.97699 56.04932 11785 ft 344 kts 282°
2026-05-06 20:33 24.98036 56.02311 11572 ft 334 kts 276°
2026-05-06 20:33 24.98213 55.99820 11475 ft 321 kts 274°
2026-05-06 20:33 24.98362 55.97406 11343 ft 306 kts 275°
2026-05-06 20:34 24.98525 55.95126 11128 ft 296 kts 276°
2026-05-06 20:34 24.98713 55.92891 10713 ft 294 kts 276°
2026-05-06 20:34 24.98919 55.90664 10328 ft 291 kts 276°
2026-05-06 20:34 24.99132 55.88454 9946 ft 289 kts 276°
2026-05-06 20:35 24.99343 55.86290 9571 ft 286 kts 275°
2026-05-06 20:35 24.99555 55.84117 9183 ft 283 kts 275°
2026-05-06 20:35 24.99928 55.82001 8755 ft 282 kts 288°
2026-05-06 20:35 25.00776 55.80066 8342 ft 280 kts 301°
2026-05-06 20:36 25.01841 55.78267 7908 ft 278 kts 303°
2026-05-06 20:36 25.02899 55.76532 7483 ft 275 kts 303°
2026-05-06 20:36 25.03921 55.74749 7069 ft 273 kts 300°
2026-05-06 20:36 25.04860 55.72959 6708 ft 268 kts 300°
2026-05-06 20:37 25.05794 55.71214 6523 ft 258 kts 301°
2026-05-06 20:37 25.06700 55.69579 6348 ft 246 kts 301°
2026-05-06 20:37 25.07583 55.68014 6157 ft 235 kts 301°
2026-05-06 20:37 25.08432 55.66516 5929 ft 227 kts 301°
2026-05-06 20:38 25.09266 55.65036 5649 ft 222 kts 301°
2026-05-06 20:38 25.10062 55.63618 5369 ft 217 kts 301°
2026-05-06 20:38 25.10861 55.62215 5066 ft 215 kts 302°
2026-05-06 20:38 25.11653 55.60831 4741 ft 213 kts 301°
2026-05-06 20:39 25.12436 55.59438 4386 ft 214 kts 301°
2026-05-06 20:39 25.13212 55.58051 4069 ft 212 kts 302°
2026-05-06 20:39 25.13984 55.56670 3756 ft 210 kts 302°
2026-05-06 20:39 25.14744 55.55313 3417 ft 209 kts 302°
2026-05-06 20:40 25.15497 55.53966 3074 ft 207 kts 302°
2026-05-06 20:40 25.16253 55.52614 2717 ft 205 kts 302°
2026-05-06 20:40 25.16990 55.51295 2429 ft 201 kts 302°
2026-05-06 20:40 25.17704 55.50017 2180 ft 189 kts 302°
2026-05-06 20:41 25.18380 55.48807 1936 ft 176 kts 302°
2026-05-06 20:41 25.18995 55.47705 1706 ft 167 kts 303°
2026-05-06 20:41 25.19597 55.46627 1500 ft 162 kts 303°
2026-05-06 20:41 25.20192 55.45562 1292 ft 163 kts 302°
2026-05-06 20:42 25.20780 55.44508 1087 ft 162 kts 302°
2026-05-06 20:42 25.21372 55.43449 886 ft 161 kts 302°
2026-05-06 20:42 25.21963 55.42397 676 ft 159 kts 302°
2026-05-06 20:42 25.22542 55.41365 483 ft 156 kts 302°
2026-05-06 20:43 25.23116 55.40343 285 ft 157 kts 302°
2026-05-06 20:43 25.23685 55.39320 89 ft 156 kts 301°
2026-05-06 20:43 25.24187 55.38417 70 ft 112 kts 301°
2026-05-06 20:43 25.24486 55.37882 70 ft 48 kts 302°
2026-05-06 20:44 25.24574 55.37706 70 ft 16 kts 288°
2026-05-06 20:44 25.24609 55.37586 70 ft 16 kts 285°
2026-05-06 20:44 25.24616 55.37482 70 ft 12 kts 273°
2026-05-06 20:44 25.24619 55.37405 70 ft 3 kts 272°
2026-05-06 20:45 25.24620 55.37377 70 ft 3 kts 272°
2026-05-06 20:45 25.24621 55.37351 70 ft 3 kts 272°
2026-05-06 20:45 25.24622 55.37326 70 ft 3 kts 272°
2026-05-06 20:45 25.24623 55.37301 70 ft 3 kts 273°
2026-05-06 20:46 25.24629 55.37270 70 ft 6 kts 289°
2026-05-06 20:46 25.24650 55.37220 70 ft 6 kts 295°
2026-05-06 20:46 25.24669 55.37176 70 ft 5 kts 295°
2026-05-06 20:46 25.24688 55.37139 70 ft 6 kts 307°
2026-05-06 20:47 25.24725 55.37086 70 ft 10 kts 302°
2026-05-06 20:47 25.24764 55.37017 70 ft 10 kts 302°
2026-05-06 20:47 25.24809 55.36939 70 ft 13 kts 302°
2026-05-06 20:47 25.24850 55.36834 70 ft 15 kts 285°
2026-05-06 20:48 25.24876 55.36726 69 ft 14 kts 285°
2026-05-06 20:48 25.24920 55.36614 69 ft 17 kts 302°
2026-05-06 20:48 25.24989 55.36488 69 ft 20 kts 301°
2026-05-06 20:48 25.25067 55.36348 69 ft 22 kts 301°
2026-05-06 20:49 25.25149 55.36199 69 ft 23 kts 301°
2026-05-06 20:49 25.25235 55.36042 69 ft 23 kts 301°
2026-05-06 20:49 25.25318 55.35892 69 ft 22 kts 301°
2026-05-06 20:49 25.25402 55.35741 69 ft 24 kts 302°
2026-05-06 20:50 25.25492 55.35578 69 ft 24 kts 301°
2026-05-06 20:50 25.25577 55.35424 69 ft 22 kts 302°
2026-05-06 20:50 25.25657 55.35282 69 ft 21 kts 302°
2026-05-06 20:50 25.25735 55.35143 69 ft 20 kts 302°
2026-05-06 20:51 25.25801 55.35058 69 ft 13 kts 347°
2026-05-06 20:51 25.25890 55.35096 69 ft 14 kts 31°
2026-05-06 20:51 25.25983 55.35158 69 ft 16 kts 32°
2026-05-06 20:51 25.26077 55.35222 69 ft 15 kts 32°
2026-05-06 20:52 25.26145 55.35267 69 ft 6 kts 31°
2026-05-06 20:52 25.26169 55.35283 69 ft 1 kts 31°
2026-05-06 20:52 25.26180 55.35290 69 ft 2 kts 31°
2026-05-06 20:52 25.26205 55.35307 69 ft 7 kts 31°
2026-05-06 20:53 25.26264 55.35346 69 ft 11 kts 31°
2026-05-06 20:53 25.26330 55.35390 69 ft 12 kts 31°
2026-05-06 20:53 25.26412 55.35445 69 ft 13 kts 32°
2026-05-06 20:53 25.26481 55.35489 69 ft 8 kts 25°
2026-05-06 20:54 25.26530 55.35520 69 ft 7 kts 32°
2026-05-06 20:54 25.26565 55.35544 69 ft 3 kts 32°
2026-05-06 20:54 25.26577 55.35552 69 ft 0 kts 31°